Location: Beaurecueil
(43.5122°N, 5.5450°E)
Time: 00:57:40
(UTC+00:00)

OBJECT-B - Pass Details

Date: 18 September 2020
Orbit: 421 x 433 km, 97.0° (Epoch: 09 October)

Event Time Altitude Azimuth Distance (km) Brightness Sun altitude
Exits shadow 20:34:37 15° 302° (WNW) 1,232 3.9 -30.1°
Drops below altitude 10° 20:35:36 10° 316° (NW) 1,517 4.4 -30.3°
Sets 20:37:58 0° 334° (NNW) 2,389 5.5 -30.6°
